Time,TemperatureF,DewpointF,PressureIn,WindDirection,WindDirectionDegrees,WindSpeedMPH,WindSpeedGustMPH,Humidity,HourlyPrecipIn,Conditions,Clouds,dailyrainin,SolarRadiationWatts/m^2,SoftwareType,DateUTC
2013-01-26 00:02:00,60.0,59.0,-100.00,SSE,168,5.0,8.0,97,0.00,,,0.00,0.000000,,2013-01-26 06:02:00,
2013-01-26 00:32:00,60.0,59.0,-100.00,South,169,5.0,8.0,98,0.00,,,0.00,0.000000,,2013-01-26 06:32:00,
2013-01-26 00:42:00,60.0,59.0,-100.00,South,169,5.0,8.0,98,0.00,,,0.00,0.000000,,2013-01-26 06:42:00,
2013-01-26 00:52:00,60.0,59.0,-100.00,South,169,5.0,8.0,98,0.00,,,0.00,0.000000,,2013-01-26 06:52:00,
2013-01-26 01:02:00,60.0,59.0,-100.00,South,169,5.0,8.0,98,0.00,,,0.00,0.000000,,2013-01-26 07:02:00,
2013-01-26 01:33:00,60.0,60.0,-100.00,South,169,4.0,7.0,99,0.00,,,0.00,0.000000,,2013-01-26 07:33:00,
2013-01-26 01:42:00,60.0,60.0,-100.00,South,169,4.0,7.0,99,0.00,,,0.00,0.000000,,2013-01-26 07:42:00,
2013-01-26 01:52:00,60.0,60.0,-100.00,South,169,4.0,7.0,99,0.00,,,0.00,0.000000,,2013-01-26 07:52:00,
2013-01-26 02:02:00,60.0,60.0,-100.00,South,169,4.0,7.0,99,0.00,,,0.00,0.000000,,2013-01-26 08:02:00,
2013-01-26 02:32:00,59.0,59.0,-100.00,South,176,2.0,5.0,99,0.00,,,0.00,0.000000,,2013-01-26 08:32:00,
2013-01-26 02:42:00,59.0,59.0,-100.00,South,176,2.0,5.0,99,0.00,,,0.00,0.000000,,2013-01-26 08:42:00,
2013-01-26 02:54:00,59.0,59.0,-100.00,South,176,2.0,5.0,99,0.00,,,0.00,0.000000,,2013-01-26 08:54:00,
2013-01-26 03:02:00,59.0,59.0,-100.00,South,176,2.0,5.0,99,0.00,,,0.00,0.000000,,2013-01-26 09:02:00,
2013-01-26 03:32:00,58.0,58.0,-100.00,South,173,2.0,5.0,99,0.00,,,0.00,0.000000,,2013-01-26 09:32:00,
2013-01-26 03:42:00,58.0,58.0,-100.00,South,173,2.0,5.0,99,0.00,,,0.00,0.000000,,2013-01-26 09:42:00,
2013-01-26 03:52:00,58.0,58.0,-100.00,South,173,2.0,5.0,99,0.00,,,0.00,0.000000,,2013-01-26 09:52:00,
2013-01-26 04:01:00,58.0,58.0,-100.00,South,173,2.0,5.0,99,0.00,,,0.00,0.000000,,2013-01-26 10:01:00,
2013-01-26 04:32:00,58.0,58.0,-100.00,SSE,151,1.0,5.0,99,0.00,,,0.00,0.000000,,2013-01-26 10:32:00,
2013-01-26 04:42:00,58.0,58.0,-100.00,SSE,151,1.0,5.0,99,0.00,,,0.00,0.000000,,2013-01-26 10:42:00,
2013-01-26 04:52:00,58.0,58.0,-100.00,SSE,151,1.0,5.0,99,0.00,,,0.00,0.000000,,2013-01-26 10:52:00,
2013-01-26 05:01:00,58.0,58.0,-100.00,SSE,151,1.0,5.0,99,0.00,,,0.00,0.000000,,2013-01-26 11:01:00,
2013-01-26 05:32:00,58.0,58.0,-100.00,ESE,105,2.0,3.0,99,0.00,,,0.00,0.000000,,2013-01-26 11:32:00,
2013-01-26 05:42:00,58.0,58.0,-100.00,ESE,105,2.0,3.0,99,0.00,,,0.00,0.000000,,2013-01-26 11:42:00,
2013-01-26 05:52:00,58.0,58.0,-100.00,ESE,105,2.0,3.0,99,0.00,,,0.00,0.000000,,2013-01-26 11:52:00,
2013-01-26 06:02:00,58.0,58.0,-100.00,ESE,105,2.0,3.0,99,0.00,,,0.00,0.000000,,2013-01-26 12:02:00,
2013-01-26 06:33:00,58.0,58.0,-100.00,ESE,104,3.0,5.0,99,0.00,,,-99.99,0.000000,,2013-01-26 12:33:00,
2013-01-26 06:42:00,58.0,58.0,-100.00,ESE,104,3.0,5.0,99,0.00,,,-99.99,0.000000,,2013-01-26 12:42:00,
2013-01-26 06:53:00,58.0,58.0,-100.00,ESE,104,3.0,5.0,99,0.00,,,-99.99,0.000000,,2013-01-26 12:53:00,
2013-01-26 07:03:00,58.0,58.0,-100.00,ESE,104,3.0,5.0,99,0.00,,,-99.99,0.000000,,2013-01-26 13:03:00,
2013-01-26 07:33:00,58.0,58.0,-100.00,ESE,110,3.0,6.0,99,0.00,,,-99.99,0.000000,,2013-01-26 13:33:00,
2013-01-26 07:42:00,58.0,58.0,-100.00,ESE,110,3.0,6.0,99,0.00,,,-99.99,0.000000,,2013-01-26 13:42:00,
2013-01-26 07:53:00,58.0,58.0,-100.00,ESE,110,3.0,6.0,99,0.00,,,-99.99,0.000000,,2013-01-26 13:53:00,
2013-01-26 08:03:00,58.0,58.0,-100.00,ESE,110,3.0,6.0,99,0.00,,,-99.99,0.000000,,2013-01-26 14:03:00,
2013-01-26 08:32:00,58.0,58.0,-100.00,ESE,114,2.0,4.0,99,0.00,,,0.00,28.000000,,2013-01-26 14:32:00,
2013-01-26 08:43:00,58.0,58.0,-100.00,ESE,114,2.0,4.0,99,0.00,,,0.00,28.000000,,2013-01-26 14:43:00,
2013-01-26 08:53:00,58.0,58.0,-100.00,ESE,114,2.0,4.0,99,0.00,,,0.00,28.000000,,2013-01-26 14:53:00,
2013-01-26 09:03:00,58.0,58.0,-100.00,ESE,114,2.0,4.0,99,0.00,,,0.00,28.000000,,2013-01-26 15:03:00,
2013-01-26 09:33:00,60.0,60.0,-100.00,SSE,148,4.0,6.0,99,0.00,,,0.00,83.000000,,2013-01-26 15:33:00,
2013-01-26 09:43:00,60.0,60.0,-100.00,SSE,148,4.0,6.0,99,0.00,,,0.00,83.000000,,2013-01-26 15:43:00,
2013-01-26 09:53:00,60.0,60.0,-100.00,SSE,148,4.0,6.0,99,0.00,,,0.00,83.000000,,2013-01-26 15:53:00,
2013-01-26 10:02:00,60.0,60.0,-100.00,SSE,148,4.0,6.0,99,0.00,,,0.00,83.000000,,2013-01-26 16:02:00,
2013-01-26 10:33:00,62.0,62.0,-100.00,SSE,152,3.0,6.0,99,0.00,,,0.00,173.000000,,2013-01-26 16:33:00,
2013-01-26 10:43:00,62.0,62.0,-100.00,SSE,152,3.0,6.0,99,0.00,,,0.00,173.000000,,2013-01-26 16:43:00,
2013-01-26 10:53:00,62.0,62.0,-100.00,SSE,152,3.0,6.0,99,0.00,,,0.00,173.000000,,2013-01-26 16:53:00,
2013-01-26 11:03:00,62.0,62.0,-100.00,SSE,152,3.0,6.0,99,0.00,,,0.00,173.000000,,2013-01-26 17:03:00,
2013-01-26 11:33:00,65.0,64.0,-100.00,South,178,2.0,7.0,98,0.00,,,0.00,203.000000,,2013-01-26 17:33:00,
2013-01-26 11:42:00,65.0,64.0,-100.00,South,178,2.0,7.0,98,0.00,,,0.00,203.000000,,2013-01-26 17:42:00,
2013-01-26 11:53:00,65.0,64.0,-100.00,South,178,2.0,7.0,98,0.00,,,0.00,203.000000,,2013-01-26 17:53:00,
2013-01-26 12:02:00,65.0,64.0,-100.00,South,178,2.0,7.0,98,0.00,,,0.00,203.000000,,2013-01-26 18:02:00,
2013-01-26 12:33:00,71.0,65.0,-100.00,SSE,158,3.0,6.0,81,0.00,,,0.00,342.000000,,2013-01-26 18:33:00,
2013-01-26 12:42:00,71.0,65.0,-100.00,SSE,158,3.0,6.0,81,0.00,,,0.00,342.000000,,2013-01-26 18:42:00,
2013-01-26 12:53:00,71.0,65.0,-100.00,SSE,158,3.0,6.0,81,0.00,,,0.00,342.000000,,2013-01-26 18:53:00,
2013-01-26 13:03:00,71.0,65.0,-100.00,SSE,158,3.0,6.0,81,0.00,,,0.00,342.000000,,2013-01-26 19:03:00,
2013-01-26 13:33:00,75.0,62.0,-100.00,South,188,5.0,10.0,65,0.00,,,0.00,393.000000,,2013-01-26 19:33:00,
2013-01-26 13:43:00,75.0,62.0,-100.00,South,188,5.0,10.0,65,0.00,,,0.00,393.000000,,2013-01-26 19:43:00,
2013-01-26 13:53:00,75.0,62.0,-100.00,South,188,5.0,10.0,65,0.00,,,0.00,393.000000,,2013-01-26 19:53:00,
2013-01-26 14:02:00,75.0,62.0,-100.00,South,188,5.0,10.0,65,0.00,,,0.00,393.000000,,2013-01-26 20:02:00,
2013-01-26 14:32:00,77.0,60.0,-100.00,SSW,204,4.0,11.0,55,0.00,,,0.00,372.000000,,2013-01-26 20:32:00,
2013-01-26 14:42:00,77.0,60.0,-100.00,SSW,204,4.0,11.0,55,0.00,,,0.00,372.000000,,2013-01-26 20:42:00,
2013-01-26 14:52:00,77.0,60.0,-100.00,SSW,204,4.0,11.0,55,0.00,,,0.00,372.000000,,2013-01-26 20:52:00,
2013-01-26 15:02:00,77.0,60.0,-100.00,SSW,204,4.0,11.0,55,0.00,,,0.00,372.000000,,2013-01-26 21:02:00,
2013-01-26 15:32:00,76.0,54.0,-100.00,South,170,6.0,12.0,47,0.00,,,0.00,455.000000,,2013-01-26 21:32:00,
2013-01-26 15:43:00,76.0,54.0,-100.00,South,170,6.0,12.0,47,0.00,,,0.00,455.000000,,2013-01-26 21:43:00,
2013-01-26 15:52:00,76.0,54.0,-100.00,South,170,6.0,12.0,47,0.00,,,0.00,455.000000,,2013-01-26 21:52:00,
2013-01-26 16:01:00,76.0,54.0,-100.00,South,170,6.0,12.0,47,0.00,,,0.00,455.000000,,2013-01-26 22:01:00,
2013-01-26 16:32:00,74.0,56.0,-100.00,SSE,160,5.0,10.0,54,0.00,,,0.00,202.000000,,2013-01-26 22:32:00,
2013-01-26 16:42:00,74.0,56.0,-100.00,SSE,160,5.0,10.0,54,0.00,,,0.00,202.000000,,2013-01-26 22:42:00,
2013-01-26 16:52:00,74.0,56.0,-100.00,SSE,160,5.0,10.0,54,0.00,,,0.00,202.000000,,2013-01-26 22:52:00,
2013-01-26 17:01:00,74.0,56.0,-100.00,SSE,160,5.0,10.0,54,0.00,,,0.00,202.000000,,2013-01-26 23:01:00,
2013-01-26 17:33:00,72.0,57.0,-100.00,South,170,6.0,12.0,60,0.00,,,0.00,121.000000,,2013-01-26 23:33:00,
2013-01-26 17:42:00,72.0,57.0,-100.00,South,170,6.0,12.0,60,0.00,,,0.00,121.000000,,2013-01-26 23:42:00,
2013-01-26 17:52:00,72.0,57.0,-100.00,South,170,6.0,12.0,60,0.00,,,0.00,121.000000,,2013-01-26 23:52:00,
2013-01-26 18:02:00,72.0,57.0,-100.00,South,170,6.0,12.0,60,0.00,,,0.00,121.000000,,2013-01-27 00:02:00,
2013-01-26 18:32:00,69.0,58.0,-100.00,South,173,6.0,12.0,68,0.00,,,0.00,18.000000,,2013-01-27 00:32:00,
2013-01-26 18:42:00,69.0,58.0,-100.00,South,173,6.0,12.0,68,0.00,,,0.00,18.000000,,2013-01-27 00:42:00,
2013-01-26 18:52:00,69.0,58.0,-100.00,South,173,6.0,12.0,68,0.00,,,0.00,18.000000,,2013-01-27 00:52:00,
2013-01-26 19:01:00,69.0,58.0,-100.00,South,173,6.0,12.0,68,0.00,,,0.00,18.000000,,2013-01-27 01:01:00,
2013-01-26 19:32:00,66.0,58.0,-100.00,South,173,6.0,12.0,75,0.00,,,0.00,0.000000,,2013-01-27 01:32:00,
2013-01-26 19:42:00,66.0,58.0,-100.00,South,173,6.0,12.0,75,0.00,,,0.00,0.000000,,2013-01-27 01:42:00,
2013-01-26 19:52:00,66.0,58.0,-100.00,South,173,6.0,12.0,75,0.00,,,0.00,0.000000,,2013-01-27 01:52:00,
2013-01-26 20:01:00,66.0,58.0,-100.00,South,173,6.0,12.0,75,0.00,,,0.00,0.000000,,2013-01-27 02:01:00,
2013-01-26 20:32:00,63.0,58.0,-100.00,South,171,5.0,10.0,84,0.00,,,0.00,0.000000,,2013-01-27 02:32:00,
2013-01-26 20:42:00,63.0,58.0,-100.00,South,171,5.0,10.0,84,0.00,,,0.00,0.000000,,2013-01-27 02:42:00,
2013-01-26 20:52:00,63.0,58.0,-100.00,South,171,5.0,10.0,84,0.00,,,0.00,0.000000,,2013-01-27 02:52:00,
2013-01-26 21:02:00,63.0,58.0,-100.00,South,171,5.0,10.0,84,0.00,,,0.00,0.000000,,2013-01-27 03:02:00,
2013-01-26 21:32:00,60.0,57.0,-100.00,SSE,166,5.0,8.0,91,0.00,,,0.00,0.000000,,2013-01-27 03:32:00,
2013-01-26 21:42:00,60.0,57.0,-100.00,SSE,166,5.0,8.0,91,0.00,,,0.00,0.000000,,2013-01-27 03:42:00,
2013-01-26 21:52:00,60.0,57.0,-100.00,SSE,166,5.0,8.0,91,0.00,,,0.00,0.000000,,2013-01-27 03:52:00,
2013-01-26 22:01:00,60.0,57.0,-100.00,SSE,166,5.0,8.0,91,0.00,,,0.00,0.000000,,2013-01-27 04:01:00,
2013-01-26 22:32:00,58.0,57.0,-100.00,SSE,159,5.0,9.0,95,0.00,,,0.00,0.000000,,2013-01-27 04:32:00,
2013-01-26 22:42:00,58.0,57.0,-100.00,SSE,159,5.0,9.0,95,0.00,,,0.00,0.000000,,2013-01-27 04:42:00,
2013-01-26 22:52:00,58.0,57.0,-100.00,SSE,159,5.0,9.0,95,0.00,,,0.00,0.000000,,2013-01-27 04:52:00,
2013-01-26 23:03:00,58.0,57.0,-100.00,SSE,159,5.0,9.0,95,0.00,,,0.00,0.000000,,2013-01-27 05:03:00,
2013-01-26 23:32:00,57.0,56.0,-100.00,SSE,160,5.0,9.0,97,0.00,,,0.00,0.000000,,2013-01-27 05:32:00,
2013-01-26 23:42:00,57.0,56.0,-100.00,SSE,160,5.0,9.0,97,0.00,,,0.00,0.000000,,2013-01-27 05:42:00,
2013-01-26 23:52:00,57.0,56.0,-100.00,SSE,160,5.0,9.0,97,0.00,,,0.00,0.000000,,2013-01-27 05:52:00,